381  
ASUS45 KGGW 160415  
RWRGGW  
HOURLY REGIONAL WEATHER ROUNDUP FOR NORTHEAST MONTANA  
NATIONAL WEATHER SERVICE GLASGOW MONTANA  
1000 PM MDT SAT JUN 15 2024  
 
NOTE: "FAIR" INDICATES FEW OR NO CLOUDS BELOW 12,000 FEET WITH NO  
SIGNIFICANT WEATHER AND/OR S TO VISISBILITY.  
 
NORTHEAST MONTANA  
 
 
CITY SKY/WX TMP DP RH WIND PRES REMARKS
 
GLASGOW CLOUDY 58 50 75 NW14 29.69R  
WOLF POINT CLOUDY 61 47 59 NW17G33 29.63R  
JORDAN N/A 56 46 69 W9 29.72R  
SIDNEY NOT AVBL  
GLENDIVE PTCLDY 58 50 75 NW38G51 29.58R  
MALTA N/A 53 50 89 SW7G15 N/A  
 
FORT PECK REPORTS  
 
 
CITY SKY/WX TMP DP RH WIND PRES REMARKS
 
FORT PECK N/A 56 51 84 W20G38 N/A  
THE PINES N/A 57 45 64 NW8G25 N/A  
 
SOUTHEAST MONTANA  
 
 
CITY SKY/WX TMP DP RH WIND PRES REMARKS
 
BILLINGS MOCLDY 59 36 42 NW14 29.84R  
MILES CITY MOCLDY 59 44 57 N20G36 29.71R  
BAKER MOCLDY 61 54 77 NW22G46 29.62R  
LIVINGSTON CLOUDY 51 31 46 NW20G30 29.91R  
 
CENTRAL MONTANA  
 
 
CITY SKY/WX TMP DP RH WIND PRES REMARKS
 
HAVRE CLEAR 52 32 46 W25G36 29.77R  
LEWISTOWN CLOUDY 50 39 66 W10G23 29.85R  
GREAT FALLS PTCLDY 47 30 51 W22G31 29.88R  
CUT BANK CLEAR 45 27 49 W36G47 29.77F  
HELENA PTCLDY 52 26 36 W14G28 29.96R  
BUTTE PTCLDY 44 23 43 NW13G21 30.00R  
BOZEMAN CLOUDY 51 32 48 N7 29.95R  
 
WESTERN MONTANA  
 
 
CITY SKY/WX TMP DP RH WIND PRES REMARKS
 
MISSOULA PTCLDY 45 34 65 CALM 30.02R  
KALISPELL NOT AVBL  
 
NORTH DAKOTA  
 
 
CITY SKY/WX TMP DP RH WIND PRES REMARKS
 
WILLISTON LGT RAIN 59 57 93 NW37G60 29.45F  
DICKINSON PTCLDY 71 63 75 SE13 29.42F  
MINOT PTCLDY 71 66 84 E6 29.40F  
BISMARCK CLOUDY 77 65 66 S24G30 29.50F  
 
SOUTHERN SASKATCHEWAN  
 
 
CITY SKY/WX TMP DP RH WIND PRES REMARKS
 
REGINA LGT RAIN 59 55 88 W21 29.60R  
ESTEVAN TSTM 66 59 77 NE9 29.40F  
SWIFT CURRENT CLOUDY 54 46 76 SW10 29.61F  
 
 
 
CLICK HERE TO GO TO PREVIOUS BULLETINS.

The Nexlab MT Page Main Text Page